CW6575 Weather Reports


Display with metric or nautical units.
time (UTC)temp
F
wind
direction
speed
MPH
gust
MPH
rain 1hr
in
rain 24hr
in
rain mn
in
humidity
%
barometer
mb
20260904161504 84 350 1.0 4.0 0.00 0.37 0.01 71 1014.1
20260904160005 83 305 1.0 6.0 0.00 0.37 0.01 71 1014.2
20260904154501 83 331 0.0 3.0 0.00 0.37 0.01 75 1014.2
20260904153102 83 42 1.0 4.0 0.00 0.37 0.01 74 1014.3
20260904151609 82 141 0.0 3.0 0.00 0.37 0.01 75 1014.2
20260904150054 81 105 0.0 3.0 0.00 0.37 0.01 79 1014.3
20260904144549 79 133 1.0 3.0 0.00 0.37 0.01 82 1014.4
20260904143045 77 144 2.0 5.0 0.00 0.37 0.01 89 1014.4
20260904141607 74 164 0.0 3.0 0.00 0.37 0.01 95 1014.5
20260904140045 73 148 1.0 3.0 0.00 0.37 0.01 96 1014.5
20260904134533 71 151 1.0 4.0 0.00 0.37 0.01 96 1014.7
20260904133030 71 144 1.0 4.0 0.00 0.37 0.01 96 1014.5
20260904131529 70 142 2.0 5.0 0.00 0.37 0.01 96 1014.8
20260904130028 69 157 1.0 3.0 0.00 0.37 0.01 96 1014.9
20260904124527 69 167 2.0 4.0 0.00 0.37 0.01 96 1014.9
20260904123026 68 149 0.0 4.0 0.00 0.37 0.01 96 1015.1
20260904121534 68 158 0.0 2.0 0.00 0.37 0.01 96 1015.0
20260904120027 68 158 2.0 6.0 0.00 0.37 0.01 96 1014.9
20260904114522 67 173 1.0 3.0 0.00 0.37 0.01 95 1014.9
20260904113032 67 254 0.0 2.0 0.00 0.37 0.01 96 1014.9
20260904111525 67 325 0.0 3.0 0.00 0.37 0.01 96 1015.0
20260904110019 67 333 1.0 3.0 0.00 0.37 0.01 95 1014.8
20260904104517 67 329 0.0 0.0 0.00 0.37 0.01 95 1014.6
20260904103018 67 329 0.0 2.0 0.00 0.37 0.01 95 1014.5
20260904101517 67 277 1.0 3.0 0.00 0.37 0.01 95 1014.4
20260904100017 67 164 0.0 1.0 0.00 0.37 0.01 95 1014.3
20260904094615 67 164 1.0 5.0 0.00 0.37 0.01 95 1014.1
20260904093015 67 214 0.0 2.0 0.00 0.37 0.01 95 1014.2
20260904091515 67 214 0.0 2.0 0.00 0.37 0.01 95 1014.1
20260904090013 67 153 0.0 3.0 0.00 0.37 0.01 95 1014.1
20260904084512 67 179 0.0 2.0 0.00 0.37 0.01 95 1013.9
20260904083015 67 179 1.0 5.0 0.00 0.37 0.01 95 1013.9
20260904081515 67 168 1.0 4.0 0.00 0.37 0.01 95 1014.0
20260904080011 67 153 2.0 3.0 0.00 0.37 0.01 95 1013.8
20260904074516 67 155 1.0 6.0 0.00 0.37 0.01 95 1013.8
20260904073009 67 146 2.0 4.0 0.00 0.37 0.01 95 1013.7
20260904071509 67 182 0.0 1.0 0.00 0.37 0.01 95 1013.6
20260904070008 67 182 0.0 3.0 0.00 0.37 0.01 95 1013.6
20260904064507 67 145 0.0 2.0 0.00 0.37 0.01 95 1013.6
20260904063013 67 145 0.0 0.0 0.00 0.37 0.01 94 1013.6
20260904061513 68 145 0.0 0.0 0.01 0.37 0.01 95 1013.6
20260904060007 68 145 0.0 0.0 0.01 0.37 0.01 94 1014.0
20260904054600 68 145 0.0 0.0 0.01 0.37 0.01 94 1014.1
20260904053101 68 145 0.0 0.0 0.01 0.37 0.01 94 1014.6
20260904051556 69 145 0.0 0.0 0.00 0.36 0.00 94 1015.0
20260904050112 69 145 0.0 6.0 0.00 0.36 0.00 94 1015.4
20260904044556 69 182 0.0 0.0 0.36 0.36 0.00 93 1015.3
20260904043050 69 182 0.0 0.0 0.36 0.36 0.00 93 1015.5
20260904041550 69 165 2.0 5.0 0.36 0.36 0.00 92 1015.4
20260904040045 71 164 0.0 4.0 0.36 0.36 0.00 89 1015.8
20260904034555 73 26 1.0 8.0 0.00 0.00 0.00 82 1016.0
20260904033043 74 35 3.0 11.0 0.00 0.00 0.00 82 1015.2
20260904031544 74 33 5.0 15.0 0.00 0.00 0.00 87 1015.0
20260904030043 73 173 3.0 6.0 0.00 0.00 0.00 90 1014.7
20260904024545 73 144 3.0 6.0 0.00 0.00 0.00 91 1014.7
20260904023043 74 151 0.0 3.0 0.00 0.00 0.00 90 1015.0
20260904021539 74 143 3.0 6.0 0.00 0.00 0.00 90 1014.3
20260904020045 74 191 3.0 6.0 0.00 0.00 0.00 91 1014.5
20260904014539 74 133 2.0 4.0 0.00 0.00 0.00 90 1014.6
20260904013038 74 142 1.0 3.0 0.00 0.00 0.00 90 1014.4
20260904011537 75 172 1.0 4.0 0.00 0.00 0.00 89 1013.9
20260904010042 75 176 2.0 5.0 0.00 0.00 0.00 89 1013.8
20260904004538 76 166 2.0 6.0 0.00 0.00 0.00 88 1013.7
20260904003036 76 148 3.0 6.0 0.00 0.00 0.00 89 1013.7
20260904001535 76 148 2.0 3.0 0.00 0.00 0.00 89 1013.9
20260904000035 77 333 0.0 2.0 0.00 0.00 0.00 88 1014.0
20260903234533 78 333 0.0 1.0 0.00 0.00 0.00 85 1014.0
20260903233036 80 333 0.0 1.0 0.00 0.00 0.00 84 1013.9
20260903231537 82 333 0.0 0.0 0.00 0.00 0.00 79 1013.9
20260903230038 84 333 0.0 0.0 0.00 0.00 0.00 76 1013.5
20260903224532 84 333 0.0 0.0 0.00 0.00 0.00 71 1013.4
20260903223034 85 333 1.0 2.0 0.00 0.00 0.00 66 1013.0
20260903221538 86 344 0.0 0.0 0.00 0.00 0.00 66 1012.8
20260903220054 85 344 0.0 3.0 0.00 0.00 0.00 67 1012.7
20260903214529 84 171 0.0 2.0 0.00 0.00 0.00 75 1012.8
20260903213030 83 160 1.0 3.0 0.00 0.00 0.00 75 1012.6
20260903211527 84 360 0.0 2.0 0.00 0.00 0.00 73 1012.9
20260903210026 86 295 0.0 2.0 0.00 0.00 0.00 63 1013.0
20260903204525 87 289 1.0 2.0 0.00 0.00 0.00 61 1013.0
20260903203025 88 198 0.0 3.0 0.00 0.00 0.00 56 1013.4
20260903201524 90 328 1.0 4.0 0.00 0.00 0.00 56 1013.7
20260903200037 90 344 1.0 4.0 0.00 0.00 0.00 58 1013.5
20260903194533 89 332 1.0 6.0 0.00 0.00 0.00 57 1013.9
20260903193015 88 337 1.0 5.0 0.00 0.00 0.00 60 1014.2
20260903191518 88 341 0.0 3.0 0.00 0.00 0.00 61 1014.3
20260903190012 89 317 0.0 4.0 0.00 0.00 0.00 60 1014.4
20260903184511 88 341 1.0 4.0 0.00 0.00 0.00 59 1014.7
20260903183015 88 156 0.0 4.0 0.00 0.00 0.00 59 1014.6
20260903181506 87 279 2.0 7.0 0.00 0.00 0.00 61 1014.9
20260903180005 89 331 1.0 4.0 0.00 0.00 0.00 58 1014.9
20260903174503 87 279 2.0 5.0 0.00 0.00 0.00 60 1015.1
20260903173002 87 287 0.0 5.0 0.00 0.00 0.00 61 1015.2
20260903171500 87 179 1.0 6.0 0.00 0.00 0.00 62 1015.1
20260903170100 88 166 0.0 4.0 0.00 0.00 0.00 60 1015.2
20260903164557 86 310 0.0 4.0 0.00 0.00 0.00 62 1015.5
20260903163053 85 331 0.0 4.0 0.00 0.00 0.00 66 1015.6